This is the latest recevied weather packets stored in our database for station/object KC3BHK-2. If no packets are shown the sender has not sent any weather packets the latest 10 day(s).
| Time | Temp. | Humidity | Pressure | Rain* | Wind** | Luminosity | Snow |
|---|---|---|---|---|---|---|---|
| 1778047605 | 20.56° C | - | - | 0 mm | 3.13 m/s, 186° | - | - |
| 1778047301 | 20° C | - | - | 0 mm | 3.13 m/s, 204° | - | - |
| 1778046996 | 20° C | - | - | 0 mm | 4.02 m/s, 197° | - | - |
| 1778046691 | 20° C | - | - | 0 mm | 2.24 m/s, 190° | - | - |
| 1778046386 | 20° C | - | - | 0 mm | 4.02 m/s, 162° | - | - |
| 1778046079 | 20° C | - | - | 0 mm | 2.24 m/s, 152° | - | - |
| 1778045773 | 20° C | - | - | 0 mm | 2.24 m/s, 131° | - | - |
| 1778045468 | 20.56° C | - | - | 0 mm | 2.68 m/s, 163° | - | - |
| 1778045164 | 20° C | - | - | 0 mm | 3.58 m/s, 145° | - | - |
| 1778044859 | 20.56° C | - | - | 0 mm | 2.24 m/s, 207° | - | - |
| 1778044553 | 20° C | - | - | 0 mm | 2.68 m/s, 218° | - | - |
| 1778044246 | 20° C | - | - | 0 mm | 2.68 m/s, 131° | - | - |
| 1778043941 | 20.56° C | - | - | 0 mm | 4.02 m/s, 135° | - | - |
| 1778043637 | 20.56° C | - | - | 0 mm | 3.58 m/s, 184° | - | - |
| 1778043332 | 20° C | - | - | 0 mm | 3.58 m/s, 183° | - | - |
| 1778043026 | 20.56° C | - | - | 0 mm | 2.68 m/s, 155° | - | - |
| 1778042414 | 20.56° C | - | - | 0 mm | 3.13 m/s, 149° | - | - |
| 1778042109 | 20.56° C | - | - | 0 mm | 4.02 m/s, 176° | - | - |
| 1778041804 | 20° C | - | - | 0 mm | 4.47 m/s, 195° | - | - |
| 1778041500 | 20.56° C | - | - | 0 mm | 4.02 m/s, 173° | - | - |
| 1778041195 | 20.56° C | - | - | 0 mm | 2.24 m/s, 131° | - | - |
| 1778040890 | 20.56° C | - | - | 0 mm | 3.58 m/s, 173° | - | - |
| 1778040582 | 20.56° C | - | - | 0 mm | 2.24 m/s, 190° | - | - |
| 1778040278 | 20° C | - | - | 0 mm | 2.24 m/s, 134° | - | - |
| 1778039973 | 20.56° C | - | - | 0 mm | 3.13 m/s, 143° | - | - |
* Rain latest hour (hover to see other rain measurements)
** Current wind speed in m/s (hover to see current wind gust speed)